User: anonymous   Login
Location: Unspecified
(0.0000°N, 0.0000°E)
Time: 19:07:42
(UTC+00:00)
Language:

OBJECT B - Orbit

View from above orbital plane
View from above orbital plane
View from above satellite
View from above satellite

Ground track
Ground track

The orbit data is extracted from the following two-line orbital elements,

1 43614U 18070B   18351.52778791  .00002316  00000-0  64790-4 0  9990
2 43614  93.0363 287.9403 0014010 297.1211  62.8613 15.36667620 14278
Epoch (UTC): 17 December 2018 12:40:00
Eccentricity: 0.0014010
inclination: 93.0363°
perigee height: 446 km
apogee height: 465 km
right ascension of ascending node: 287.9403°
argument of perigee: 297.1211°
revolutions per day: 15.36667620
mean anomaly at epoch: 62.8613°
orbit number at epoch: 1427

The dashed part of the orbit path shows where the satellite is in the earth's shadow,  

DLR